www.pogodaiklimat.ru

Погода и климат >> Архив погоды >> Южная Африка >> Кейптаун порт


ПОГОДА в Кейптаун порту

  • Прогноз погоды в Кейптаун порту
  • Монитор погоды в Кейптаун порту

АРХИВ ПОГОДЫ в Кейптаун порту

Время (UTC), дата Ветер
(напр.,м/с)
 
Видим.   Явления Облачность Т
(С)
Тd
(С)
f
(%)
Тe
(С)
Тes
(С)
Комфортность P
(гПа)
Po
(гПа)
Тmin
(С)
Tmax
(С)
R
(мм)
R24
(мм)
S
(см)
15 18.06 СЗ 3 н/о н/о +24.6 +1.7 22 +23 +23 комфорт 1019.3 1018.1 +24.6 +28.8
18 18.06 СЗ 1 н/о н/о +21.1 +3.9 32 +21 +21 комфорт 1020.6 1019.3 +19.2 +28.8
21 18.06 С 1 н/о н/о +17.2 +6.8 50 +18 +18 1021.0 1019.7 +16.4 +28.8
00 19.06 З 2 н/о н/о +15.3 +7.1 58 +15 +15 1020.8 1019.5 +14.2 +28.8
03 19.06 СЗ 1 н/о н/о +15.8 +6.8 55 +17 +17 1020.8 1019.5 +14.2 +28.8
06 19.06 СЗ 1 н/о н/о +15.0 +6.6 57 +16 +16 1021.9 1020.6 +14.2
09 19.06 С 1 н/о н/о +19.7 +5.5 39 +21 +21 комфорт 1023.0 1021.7 +14.2 +20.0
12 19.06 СЗ 2 н/о н/о +21.5 +1.9 27 +21 +21 комфорт 1021.6 1020.3 +14.2 +22.3
15 19.06 СЗ 1 н/о н/о +21.7 -2.7 19 +21 +21 комфорт 1021.2 1019.9 +20.1 +22.3
18 19.06 С 1 н/о н/о +15.7 +8.2 61 +16 +16 1022.6 1021.3 +15.7 +22.3
21 19.06 штиль 0 н/о н/о +15.2 +3.7 46 +15 +15 1023.2 1021.9 +14.9 +22.3
00 20.06 СЗ 1 н/о н/о +14.9 +2.5 43 +16 +16 1023.2 1021.9 +13.7 +22.3
03 20.06 З 1 н/о н/о +13.4 +0.8 42 +14 +14 1022.0 1020.7 +12.8 +22.3
06 20.06 штиль 0 н/о н/о +12.6 +6.4 66 +12 +12 1021.9 1020.6 +12.5
09 20.06 штиль 0 н/о н/о +20.7 +4.0 33 +21 +21 комфорт 1022.0 1020.7 +12.5 +21.1
12 20.06 штиль 0 н/о н/о +22.5 +4.7 31 +23 +23 комфорт 1019.0 1017.8 +12.5 +23.3
15 20.06 З 2 н/о н/о +22.3 +0.3 23 +22 +22 комфорт 1017.5 1016.3 +22.3 +24.2
18 20.06 С 1 н/о н/о +16.4 +6.3 51 +17 +17 1017.5 1016.2 +15.7 +24.2
21 20.06 С 1 н/о н/о +16.1 +3.2 42 +17 +17 1017.1 1015.8 +14.2 +24.2
00 21.06 СЗ 2 н/о н/о +16.0 +3.5 43 +16 +16 1016.8 1015.5 +14.2 +24.2
03 21.06 СЗ 2 н/о н/о +16.4 +2.8 40 +17 +17 1014.9 1013.6 +14.2 +24.2
06 21.06 СЗ 2 н/о н/о +15.1 +2.0 41 +15 +15 1014.8 1013.5 +12.7
09 21.06 С 1 н/о н/о +18.8 +4.7 39 +20 +20 1014.2 1012.9 +12.7 +19.5
12 21.06 СЗ 4 н/о н/о +18.0 +8.1 52 +18 +18 1012.4 1011.1 +12.7 +21.1
15 21.06 С 3 н/о н/о +13.6 +11.5 87 +12 +12 1013.0 1011.7 +13.5 +21.1
18 21.06 С 5 н/о н/о +12.5 +10.4 87 +10 +10 1011.2 1009.9 +12.4 +21.1 3
21 21.06 З 14 н/о н/о +15.5 +11.1 75 +13 +13 1013.0 1011.7 +12.2 +21.1
00 22.06 З 3 н/о н/о +13.7 +9.7 77 +13 +13 1019.2 1017.9 +12.2 +21.1 6
03 22.06 СЗ 1 н/о н/о +13.3 +10.3 82 +13 +13 1021.4 1020.1 +12.2 +21.1
06 22.06 Ю 1 н/о н/о +13.5 +10.7 83 +14 +14 1023.4 1022.1 +12.2 9
12 22.06 ЮЗ 5 н/о н/о +16.4 +11.1 71 +15 +15 1024.3 1023.0 +12.2 +17.2 3
21 22.06 Ю 8 н/о н/о +15.0 +11.2 78 +13 +13 1025.3 1024.0 +14.4 +17.2
00 23.06 Ю 7 н/о н/о +14.9 +10.3 74 +13 +13 1024.4 1023.1 +14.4 +17.2 3
03 23.06 Ю 1 н/о н/о +14.6 +9.2 70 +15 +15 1023.4 1022.1 +14.1 +17.2
09 23.06 С 1 н/о н/о +17.3 +11.4 68 +18 +18 1024.6 1023.3 +11.8 +18.8
12 23.06 С 1 н/о н/о +18.1 +11.7 66 +19 +19 1021.8 1020.5 +11.8 +19.0
15 23.06 штиль 0 н/о н/о +20.3 +10.2 52 +22 +22 комфорт 1020.6 1019.3 +17.9 +21.4
18 23.06 ЮВ 3 н/о н/о +14.4 +10.2 76 +14 +14 1020.7 1019.4 +14.3 +21.4
21 23.06 ЮЗ 1 н/о н/о +12.2 +8.8 80 +12 +12 1020.2 1018.9 +12.2 +21.4
00 24.06 штиль 0 н/о н/о +11.1 +7.9 81 +11 +11 1019.0 1017.7 +11.1 +21.4
03 24.06 З 2 н/о н/о +10.6 +7.6 82 +9 +9 1018.5 1017.2 +10.5 +21.4
06 24.06 ЮЗ 1 н/о н/о +11.1 +7.9 81 +11 +11 1019.4 1018.1 +10.5
09 24.06 СВ 1 н/о н/о +16.4 +9.4 63 +17 +17 1020.7 1019.4 +10.5 +18.2
12 24.06 Ю 5 н/о н/о +17.5 +10.4 63 +17 +17 1019.7 1018.4 +10.5 +18.7
15 24.06 Ю 5 н/о н/о +15.9 +9.1 64 +15 +15 1019.5 1018.2 +15.9 +18.7
18 24.06 Ю 8 н/о н/о +14.4 +11.0 80 +12 +12 1019.9 1018.6 +14.4 +18.7
21 24.06 Ю 9 н/о н/о +15.0 +9.2 68 +13 +13 1020.1 1018.8 +14.3 +18.7
00 25.06 Ю 12 н/о н/о +14.5 +8.9 69 +12 +12 1019.2 1017.9 +14.3 +18.7
03 25.06 Ю 11 н/о н/о +14.6 +9.6 72 +12 +12 1018.9 1017.6 +14.3 +18.7
06 25.06 Ю 8 н/о н/о +15.3 +8.6 64 +13 +13 1019.5 1018.2 +14.3
09 25.06 Ю 9 н/о н/о +16.7 +9.7 63 +15 +15 1020.1 1018.8 +14.3 +16.7
12 25.06 Ю 7 н/о н/о +17.9 +9.6 58 +17 +17 1018.7 1017.4 +14.3 +18.0

 

Местоположение метеостанции Кейптаун порт (Южная Африка): широта -33.90 долгота 18.43 высота над уровнем моря 0 м.

В архиве по умолчанию представлена погода в Кейптаун порту за последнюю неделю. Архивные данные за месяц целиком и за предыдущие месяцы, начиная с января 2011 года, Вы можете получить, выбрав интересующий диапазон дат из раскрывающегося списка и нажав кнопку "Ввод!".


*Определитесь, кто Вы:
робот инопланетянин человек

Внимание! Время в таблицах - всемирное. Для получения местного времени необходимо прибавить поправку, которая равна 2 ч.

Смотрите также архив погоды в соседних городах и на ближайших метеорологических станциях:

Погода в Кейптауне (Южная Африка) (5 км)
Погода в Йестерпланте (Южная Африка) (6 км)
Погода на Роббенэйланде (Южная Африка) (12 км)
Погода в Кейптауне аэропорту (Южная Африка) (17 км)
Погода в Кейптауне аэропорту АМС (Южная Африка) (17 км)
Погода на Слангкопе (Южная Африка) (30 км)
Погода в Странде (Южная Африка) (47 км)
Погода на Кейп-Пойнт (Южная Африка) (50 км)
Погода в Парле (Южная Африка) (54 км)
Погода в Малмсбери (Южная Африка) (56 км)

Пояснения к столбцам:

Ветер - указаны скорость ветра в м/с - средняя за 10 мин, порывы в срок и между сроками (в фигурных скобках) и направление, откуда дует ветер: С - северный, СВ - северо-восточный, В - восточный, ЮВ - юго-восточный, Ю - южный, ЮЗ - юго-западный, З - западный, СЗ - северо-западный.
Видимость - горизонтальная дальность видимости в метрах или километрах. При видимости от 1 до 10 км при отсутствии осадков обычно наблюдается дымка, при ухудшении видимости до 1 км и менее - туман. В сухую погоду видимость может ухудшаться дымом, пылью или мглою.
Явления - указаны атмосферные явления, наблюдавшиеся в срок или в последний час перед сроком; фигурными скобками обозначены явления, наблюдавшиеся между сроками (за 1-3 часа до срока); квадратными скобками обозначены град или гололедные отложения с указанием их диаметра в мм.
Облачность - указаны через наклонную черту общая и нижняя облачность в баллах и высота нижней границы облаков в метрах; квадратными скобками обозначены формы облаков: Ci - перистые, Cs - перисто-слоистые, Cc - перисто-кучевые, Ac - высококучевые, As - высокослоистые, Sc - слоисто-кучевые, Ns - слоисто-дождевые, Cu - кучевые, Cb - кучево-дождевые. Подробнее классификацию облаков см. в Атласе облаков (PDF).
T - Температура воздуха - температура, измеренная на высоте 2 м над землей.
Td - Температура точки росы - температура, при понижении до которой содержащийся в воздухе водяной пар достигнет насыщения.
f - Относительная влажность воздуха - влажноcть воздуха, измеренная на высоте 2 м над землей.
Te - Эффективная температура - температура, которую ощущает одетый по сезону человек в тени. Характеристика душности погоды. При расчете учитывается влияние влажности воздуха и скорости ветра на теплоощущения человека.
Tes - Эффективная температура на солнце - температура, которую ощущает человек, с поправкой на солнечный нагрев. Характеристика знойности погоды. Зависит от высоты солнца над горизонтом, облачности и скорости ветра. Ночью, в пасмурную погоду, а также при ветре 12 м/с и более поправка равна нулю.
P - Атмосферное давление - приведенное к уровню моря атмосферное давление.
Po - Атмосферное давление - измеренное на уровне метеостанции атмосферное давление.
Tmin - Минимальная температура - минимум температуры воздуха на высоте 2 м над землей.
Tmax - Максимальная температура - максимум температуры воздуха на высоте 2 м над землей.
R - Количество осадков - Количество выпавших осадков за период времени, мм. При наведении курсора мыши на число - период времени, за который выпало указанное количество осадков.
R24 - Количество осадков - Количество выпавших осадков за 24 часа, мм.
S - Снежный покров - Высота снежного покрова, см. При наведении курсора мыши на число - состояние снежного покрова и степень покрытия местности в баллах.